Location: Seattle
(47.6064°N, 122.3308°W)
Time: 04:27:50
(UTC-08:00)

ISS - Visible Passes

Search period start: 03 December 2022 00:00
Search period end: 13 December 2022 00:00
Orbit: 414 x 420 km, 51.6° (Epoch: 03 December)

Date Brightness Start Highest point End Pass type
(mag) Time Alt. Az. Time Alt. Az. Time Alt. Az.
03 Dec -3.1 18:10:41 10° WNW 18:13:57 53° SSW 18:15:08 33° SSE visible
04 Dec -3.7 17:22:31 10° WNW 17:25:52 79° SSW 17:29:12 10° ESE visible
04 Dec -1.0 19:00:09 10° W 19:02:11 15° SW 19:02:34 15° SW visible
05 Dec -1.5 18:11:29 10° W 18:14:13 23° SW 18:16:57 10° SSE visible
06 Dec -2.1 17:23:04 10° WNW 17:26:10 36° SW 17:29:16 10° SSE visible
08 Dec -0.6 17:24:04 10° W 17:26:12 16° SW 17:28:20 10° S visible
